Wind_Speed
5 5 5 5 4 4 4 5 5 5 6 6 7 7 8 9 9 10 10 9 9 10 10 10 11 11 11 11 11 11 12 12 13 13 13 14 15 16
5 5 5 5 5 6 6 6 6 6 7 7 8 8 9 9 9 10 10 10 10 10 10 11 11 11 12 12 12 13 13 13 14 14 15 16 17 17
5 5 5 6 6 6 7 7 7 7 7 8 8 9 9 10 10 10 10 10 10 11 11 11 11 12 13 13 13 14 14 15 15 16 17 17 18 19
6 5 5 6 5 6 7 7 7 7 7 7 8 8 9 9 10 10 10 11 11 12 12 12 13 13 14 14 15 15 16 16 17 18 19 19 20 21
6 6 6 5 5 6 6 7 7 7 7 8 9 9 10 10 11 11 11 12 12 13 13 14 14 15 15 16 16 17 18 19 19 20 21 22 22 23
6 5 6 6 6 6 7 7 8 8 9 9 10 10 11 12 12 13 13 13 14 15 15 15 16 17 17 18 18 19 20 20 21 22 23 24 25 25
5 5 6 6 7 8 8 9 9 10 10 11 11 12 13 14 14 14 14 15 16 16 17 17 18 18 19 19 20 21 22 22 23 24 25 25 26 27
7 7 7 8 9 9 9 10 10 11 11 12 12 13 14 15 15 15 16 16 17 17 18 19 20 20 21 22 22 23 24 24 25 26 27 28 29 29
9 9 10 10 10 11 11 11 11 11 12 13 13 14 15 16 16 17 17 17 17 18 19 20 21 22 23 24 25 25 26 27 28 29 30 31 31 32
11 12 12 12 12 12 12 12 12 12 13 13 14 15 15 16 17 17 17 18 19 20 21 22 23 24 25 26 26 27 28 29 30 31 32 33 34 34
13 13 13 14 14 14 14 14 14 14 15 15 16 16 17 17 18 18 19 20 21 21 22 23 24 25 26 27 28 29 30 32 33 34 34 35 35 36
14 15 15 15 15 15 15 15 15 15 16 16 17 18 18 19 19 19 20 21 22 22 23 25 26 27 27 28 30 31 32 34 35 35 36 36 37 38
16 16 16 16 15 15 15 16 16 17 17 17 18 19 19 20 20 21 22 22 23 24 25 26 28 28 30 30 31 32 33 35 35 36 37 38 38 39
16 16 16 16 16 16 17 17 17 18 18 18 19 20 21 21 22 22 23 23 24 25 26 28 29 30 31 31 32 34 35 36 36 37 38 38 39 40
17 17 17 17 16 16 17 17 17 18 19 20 21 21 22 22 23 24 24 24 25 26 27 28 29 30 31 32 34 35 36 37 38 39 39 39 39 40
18 18 18 17 17 18 18 18 19 20 20 21 22 22 22 23 24 24 24 25 26 27 28 29 30 32 33 35 36 37 38 39 39 40 40 41 42 43
19 19 19 19 19 19 19 19 20 20 20 21 22 22 23 24 24 24 25 26 27 28 29 31 32 34 36 37 38 39 40 40 40 41 42 43 44 45
19 19 20 20 20 20 20 20 20 21 21 22 23 23 23 24 25 26 27 28 29 30 31 33 35 36 38 38 39 40 41 41 41 41 43 43 44 44
19 19 20 20 21 21 21 21 22 22 23 23 23 24 25 25 26 28 28 30 31 33 34 35 36 37 38 39 39 40 40 41 41 41 42 43 44 44
20 21 21 21 22 23 23 23 24 24 24 24 24 25 26 27 28 29 30 31 33 35 36 36 37 38 38 38 39 40 41 42 42 43 44 45 45 45
21 22 23 23 23 24 24 25 25 26 25 25 26 26 27 28 29 30 32 33 34 35 36 36 36 37 38 39 40 41 42 43 44 44 45 45 45 45
24 23 24 25 25 25 25 25 26 26 26 27 27 28 28 30 31 32 33 34 35 36 36 36 37 38 39 40 42 43 44 44 45 45 45 45 45 44
25 26 26 26 26 25 26 26 26 26 27 27 28 29 30 31 32 33 35 35 36 36 37 38 38 39 40 42 43 44 44 45 45 46 45 45 45 45
Wind_Direction
237 238 245 250 254 259 266 276 286 290 297 303 307 310 312 311 312 315 318 317 317 316 315 315 315 313 313 313 311 310 309 309 308 308 307 306 306 303
240 242 250 258 263 266 271 277 282 288 297 301 305 308 313 314 313 313 313 315 314 315 314 312 311 309 307 308 307 306 305 305 306 306 307 307 305 305
248 253 259 265 266 271 277 281 280 286 294 298 300 305 311 314 318 318 320 321 320 319 317 315 312 309 307 308 308 308 309 308 308 308 307 306 306 306
250 257 264 267 271 277 281 285 286 289 295 298 301 307 311 316 319 317 316 318 317 315 313 313 313 312 311 311 309 309 310 310 309 308 307 306 306 306
250 259 266 270 274 279 284 286 288 290 295 296 299 304 308 313 314 313 311 312 311 311 312 311 310 309 309 309 308 308 308 308 307 307 306 305 305 304
249 261 267 273 277 281 282 284 286 289 291 294 297 302 307 308 309 308 305 305 307 309 307 307 307 306 306 305 306 307 306 306 306 306 306 305 305 305
252 263 271 277 277 277 280 284 286 288 290 295 298 301 304 306 307 306 305 303 305 306 304 304 304 304 303 303 304 305 305 305 305 305 305 305 305 304
255 266 274 280 281 280 282 287 287 287 289 293 297 301 304 305 306 306 306 306 306 305 304 304 305 304 304 303 303 303 303 303 304 304 304 304 304 303
258 269 274 279 282 284 284 287 290 290 291 296 300 302 304 306 305 305 305 306 306 306 306 306 306 306 305 304 304 303 303 303 303 303 303 303 303 302
262 271 274 278 282 284 284 285 288 290 293 297 299 301 304 305 306 306 305 305 306 306 306 306 306 306 305 305 304 304 304 304 304 304 304 303 302 301
265 272 274 277 281 281 283 283 285 288 290 293 296 300 303 305 307 306 306 307 307 306 306 308 308 307 307 307 306 305 305 305 305 305 304 303 303 302
264 269 273 277 278 280 281 282 285 287 289 291 294 298 301 303 305 305 307 307 307 306 307 308 309 308 309 309 308 307 306 306 305 304 304 303 303 303
265 269 273 275 275 277 279 282 285 287 290 291 293 297 300 302 302 304 306 307 306 306 307 308 308 308 309 309 309 309 309 308 307 306 304 304 303 303
265 268 271 273 275 278 280 283 285 287 289 291 294 297 298 299 301 303 305 307 306 307 308 308 308 309 309 309 310 310 310 309 308 307 307 306 306 305
266 268 269 271 274 277 279 282 284 287 289 291 293 296 298 299 300 302 303 305 306 307 308 309 310 310 311 311 310 310 311 310 309 308 307 307 306 306
266 267 268 271 274 276 279 281 283 285 289 290 293 295 297 298 300 301 302 303 304 306 308 309 310 311 312 312 311 311 310 310 308 308 307 307 307 307
266 268 268 270 274 277 280 282 284 285 287 290 291 293 297 298 299 300 302 304 306 307 309 310 311 312 312 312 312 311 311 310 309 308 308 308 308 308
268 268 268 270 274 278 282 284 286 288 290 292 293 294 296 298 297 298 301 303 306 307 309 310 311 312 312 312 312 312 311 311 310 310 310 310 309 309
270 271 271 272 275 278 282 284 286 288 291 293 294 294 296 296 297 299 300 302 305 306 307 309 310 311 312 313 313 314 314 314 313 313 313 312 312 311
271 271 272 274 276 278 281 283 285 289 291 292 294 295 296 297 298 299 301 303 305 306 307 308 310 312 313 314 315 316 315 314 314 313 313 313 313 312
272 273 272 274 276 278 280 282 284 288 291 292 293 295 297 299 299 299 301 303 305 306 308 309 311 312 313 314 315 315 315 314 314 314 314 314 313 313
273 274 275 275 276 278 280 282 285 287 289 292 294 294 296 298 300 300 302 303 305 306 308 309 310 311 312 313 315 315 316 316 316 315 315 315 314 314
274 276 276 276 276 277 280 283 285 287 288 290 292 294 296 298 299 301 303 304 305 306 308 309 310 311 312 314 315 316 316 316 317 317 317 316 316 315
Height
5853 5853 5853 5853 5853 5853 5852 5852 5852 5851 5850 5848 5847 5845 5844 5842 5840 5838 5837 5835 5833 5832 5830 5829 5827 5826 5824 5822 5821 5819 5818 5816 5815 5813 5811 5809 5807 5805
5852 5852 5852 5852 5851 5851 5851 5850 5850 5849 5848 5847 5845 5844 5842 5840 5838 5836 5835 5833 5831 5829 5828 5827 5825 5823 5822 5820 5819 5817 5815 5813 5812 5810 5808 5806 5804 5802
5850 5850 5850 5850 5849 5849 5849 5848 5848 5847 5846 5845 5844 5842 5841 5839 5837 5835 5833 5831 5829 5827 5826 5824 5823 5821 5819 5818 5816 5814 5812 5811 5809 5807 5804 5802 5800 5798
5849 5849 5848 5848 5848 5847 5847 5846 5846 5845 5844 5843 5842 5841 5839 5837 5835 5833 5831 5829 5827 5826 5824 5822 5820 5819 5817 5815 5813 5811 5809 5807 5805 5803 5801 5798 5796 5793
5847 5847 5847 5846 5846 5846 5845 5845 5844 5843 5842 5841 5840 5839 5837 5835 5833 5831 5829 5827 5826 5823 5822 5820 5818 5816 5814 5812 5810 5807 5805 5803 5801 5798 5796 5793 5791 5788
5845 5845 5845 5845 5845 5844 5843 5843 5842 5841 5840 5839 5838 5836 5835 5833 5831 5829 5827 5825 5823 5821 5819 5817 5815 5813 5811 5808 5806 5804 5801 5799 5796 5793 5791 5788 5785 5782
5843 5843 5843 5843 5843 5842 5841 5841 5840 5839 5838 5836 5835 5834 5832 5830 5828 5826 5824 5822 5820 5818 5815 5813 5811 5809 5807 5804 5802 5799 5796 5793 5791 5788 5785 5781 5778 5775
5841 5841 5841 5841 5840 5839 5839 5838 5837 5836 5835 5834 5832 5830 5828 5827 5824 5822 5820 5818 5816 5814 5811 5809 5806 5804 5801 5799 5796 5794 5791 5788 5785 5781 5778 5775 5771 5767
5839 5839 5838 5838 5837 5837 5836 5835 5834 5833 5832 5830 5829 5827 5825 5823 5821 5819 5816 5814 5812 5809 5807 5804 5802 5799 5796 5793 5790 5787 5784 5781 5778 5774 5770 5767 5763 5759
5836 5836 5835 5835 5834 5833 5832 5832 5831 5829 5828 5827 5825 5823 5821 5819 5817 5815 5812 5810 5808 5805 5802 5800 5797 5793 5790 5787 5784 5781 5778 5774 5770 5766 5762 5758 5754 5750
5832 5832 5831 5831 5830 5830 5829 5828 5827 5826 5824 5823 5821 5819 5817 5815 5813 5811 5808 5806 5803 5800 5797 5794 5791 5788 5784 5781 5777 5774 5770 5766 5762 5757 5753 5749 5744 5740
5828 5828 5827 5827 5826 5825 5825 5824 5823 5822 5820 5819 5817 5815 5813 5811 5809 5806 5804 5801 5798 5795 5792 5789 5785 5782 5778 5774 5770 5766 5762 5757 5753 5748 5744 5739 5734 5730
5823 5823 5823 5822 5822 5821 5820 5820 5819 5817 5816 5814 5812 5810 5808 5806 5804 5801 5798 5796 5793 5789 5786 5783 5779 5775 5771 5767 5763 5758 5753 5749 5744 5739 5734 5729 5724 5719
5819 5819 5818 5818 5817 5816 5816 5815 5813 5812 5811 5809 5807 5805 5803 5801 5798 5796 5793 5790 5787 5783 5780 5776 5772 5768 5764 5760 5755 5750 5745 5740 5735 5729 5724 5719 5714 5709
5814 5814 5813 5813 5812 5812 5811 5809 5808 5807 5805 5804 5802 5800 5797 5795 5792 5790 5787 5784 5781 5777 5773 5769 5765 5761 5757 5752 5747 5742 5736 5731 5725 5720 5714 5709 5704 5699
5809 5808 5808 5808 5807 5806 5805 5804 5803 5801 5800 5798 5796 5794 5791 5789 5786 5783 5781 5777 5774 5771 5766 5762 5758 5754 5749 5744 5739 5733 5727 5721 5715 5710 5704 5698 5693 5687
5803 5803 5803 5802 5802 5801 5800 5798 5797 5795 5794 5792 5790 5787 5785 5783 5780 5777 5774 5771 5767 5763 5759 5755 5750 5745 5740 5735 5729 5723 5717 5711 5705 5699 5694 5688 5682 5675
5798 5798 5797 5797 5796 5795 5794 5793 5791 5789 5787 5785 5783 5781 5778 5776 5773 5770 5767 5763 5760 5756 5752 5747 5742 5737 5731 5726 5720 5713 5707 5701 5695 5689 5683 5677 5670 5664
5792 5792 5791 5791 5790 5789 5788 5786 5785 5783 5781 5779 5777 5774 5771 5769 5766 5763 5759 5756 5752 5748 5743 5738 5733 5728 5722 5716 5710 5704 5697 5691 5685 5679 5672 5666 5659 5653
5786 5786 5785 5784 5783 5782 5781 5780 5778 5776 5774 5772 5770 5767 5764 5761 5758 5755 5752 5748 5744 5739 5734 5730 5724 5718 5713 5707 5701 5695 5688 5682 5675 5669 5662 5655 5648 5641
5780 5779 5778 5777 5776 5775 5774 5772 5771 5769 5767 5765 5762 5759 5757 5754 5750 5747 5743 5739 5735 5730 5725 5721 5715 5709 5703 5698 5692 5686 5679 5672 5665 5658 5651 5644 5637 5630
5772 5772 5771 5770 5769 5767 5766 5765 5763 5761 5759 5757 5754 5752 5749 5746 5742 5738 5734 5730 5726 5721 5716 5711 5706 5700 5694 5688 5682 5676 5669 5662 5654 5647 5640 5633 5626 5619
5765 5764 5763 5762 5761 5759 5758 5757 5755 5753 5751 5749 5746 5743 5740 5737 5733 5730 5726 5721 5716 5712 5707 5702 5696 5691 5685 5679 5672 5665 5658 5651 5644 5637 5630 5622 5615 5608